Time,TemperatureF,DewpointF,PressureIn,WindDirection,WindDirectionDegrees,WindSpeedMPH,WindSpeedGustMPH,Humidity,HourlyPrecipIn,Conditions,Clouds,dailyrainin,SoftwareType,DateUTC
2013-02-09 00:05:00,5.2,1.7,30.36,NW,325,0.0,0.0,85,0.00,,,0.01,Wunderground v.1.13,2013-02-09 06:05:00,
2013-02-09 00:15:00,5.0,1.5,30.36,NW,325,0.0,0.0,85,0.00,,,0.01,Wunderground v.1.13,2013-02-09 06:15:00,
2013-02-09 00:25:00,5.2,1.7,30.36,NW,325,0.0,0.0,85,0.00,,,0.01,Wunderground v.1.13,2013-02-09 06:25:00,
2013-02-09 00:30:00,5.4,1.9,30.36,NW,325,0.0,0.0,85,0.00,,,0.01,Wunderground v.1.13,2013-02-09 06:30:00,
2013-02-09 00:40:00,5.8,2.3,30.36,NW,325,0.0,0.0,85,0.00,,,0.01,Wunderground v.1.13,2013-02-09 06:40:00,
2013-02-09 00:45:00,6.0,2.5,30.36,NW,325,0.0,0.0,85,0.00,,,0.01,Wunderground v.1.13,2013-02-09 06:45:00,
2013-02-09 00:50:00,6.3,3.0,30.36,NW,325,0.0,0.0,86,0.00,,,0.01,Wunderground v.1.13,2013-02-09 06:50:00,
2013-02-09 00:55:00,6.3,2.8,30.36,NW,325,0.0,0.0,85,0.00,,,0.01,Wunderground v.1.13,2013-02-09 06:55:00,
2013-02-09 01:05:00,6.0,2.5,30.36,NW,325,0.0,0.0,85,0.00,,,0.01,Wunderground v.1.13,2013-02-09 07:05:00,
2013-02-09 01:15:00,5.8,2.3,30.36,NW,325,0.0,0.0,85,0.00,,,0.01,Wunderground v.1.13,2013-02-09 07:15:00,
2013-02-09 01:25:00,6.1,2.8,30.36,NW,325,0.0,0.0,86,0.00,,,0.01,Wunderground v.1.13,2013-02-09 07:25:00,
2013-02-09 01:30:00,6.7,3.4,30.36,NW,325,0.0,0.0,86,0.00,,,0.01,Wunderground v.1.13,2013-02-09 07:30:00,
2013-02-09 01:40:00,7.4,4.1,30.37,NW,325,0.0,0.0,86,0.00,,,0.01,Wunderground v.1.13,2013-02-09 07:40:00,
2013-02-09 01:50:00,7.9,4.6,30.37,NW,325,0.0,0.0,86,0.00,,,0.01,Wunderground v.1.13,2013-02-09 07:50:00,
2013-02-09 01:55:00,8.4,5.3,30.37,NW,325,0.0,0.0,87,0.00,,,0.01,Wunderground v.1.13,2013-02-09 07:55:00,
2013-02-09 02:05:00,9.3,6.2,30.37,NW,325,0.0,0.0,87,0.00,,,0.01,Wunderground v.1.13,2013-02-09 08:05:00,
2013-02-09 02:15:00,10.7,7.6,30.37,NW,325,0.0,0.0,87,0.00,,,0.01,Wunderground v.1.13,2013-02-09 08:15:00,
2013-02-09 02:25:00,11.6,8.5,30.37,NW,325,0.0,0.0,87,0.00,,,0.01,Wunderground v.1.13,2013-02-09 08:25:00,
2013-02-09 02:35:00,12.3,9.4,30.35,NW,325,0.0,0.0,88,0.00,,,0.01,Wunderground v.1.13,2013-02-09 08:35:00,
2013-02-09 02:40:00,12.8,9.9,30.35,NW,325,0.0,0.0,88,0.00,,,0.01,Wunderground v.1.13,2013-02-09 08:40:00,
2013-02-09 02:50:00,13.3,10.4,30.35,WNW,285,0.0,0.0,88,0.00,,,0.01,Wunderground v.1.13,2013-02-09 08:50:00,
2013-02-09 02:55:00,13.5,10.6,30.35,WSW,253,0.0,0.0,88,0.00,,,0.01,Wunderground v.1.13,2013-02-09 08:55:00,
2013-02-09 03:05:00,13.6,10.7,30.33,WSW,253,0.0,1.0,88,0.00,,,0.01,Wunderground v.1.13,2013-02-09 09:05:00,
2013-02-09 03:15:00,13.3,10.4,30.33,WSW,253,0.0,1.0,88,0.00,,,0.01,Wunderground v.1.13,2013-02-09 09:15:00,
2013-02-09 03:20:00,13.1,10.2,30.34,WSW,253,0.0,1.0,88,0.00,,,0.01,Wunderground v.1.13,2013-02-09 09:20:00,
2013-02-09 03:30:00,12.9,10.0,30.34,WSW,253,0.0,1.0,88,0.00,,,0.01,Wunderground v.1.13,2013-02-09 09:30:00,
2013-02-09 03:35:00,12.9,10.0,30.35,WSW,253,0.0,1.0,88,0.00,,,0.01,Wunderground v.1.13,2013-02-09 09:35:00,
2013-02-09 03:45:00,13.5,10.6,30.35,WSW,253,0.0,1.0,88,0.00,,,0.01,Wunderground v.1.13,2013-02-09 09:45:00,
2013-02-09 03:55:00,14.0,11.4,30.34,WSW,253,0.0,1.0,89,0.00,,,0.01,Wunderground v.1.13,2013-02-09 09:55:00,
2013-02-09 04:00:00,14.1,11.5,30.34,WSW,253,0.0,1.0,89,0.00,,,0.01,Wunderground v.1.13,2013-02-09 10:00:00,
2013-02-09 04:05:00,14.3,11.7,30.34,WSW,253,0.0,0.0,89,0.00,,,0.01,Wunderground v.1.13,2013-02-09 10:05:00,
2013-02-09 04:15:00,15.1,12.4,30.34,WSW,253,0.0,0.0,89,0.00,,,0.01,Wunderground v.1.13,2013-02-09 10:15:00,
2013-02-09 04:20:00,15.4,13.0,30.33,WSW,246,0.0,0.0,90,0.00,,,0.01,Wunderground v.1.13,2013-02-09 10:20:00,
2013-02-09 04:30:00,16.1,13.7,30.33,South,191,1.0,1.0,90,0.00,,,0.01,Wunderground v.1.13,2013-02-09 10:30:00,
2013-02-09 04:35:00,16.4,14.0,30.33,South,186,1.0,1.0,90,0.00,,,0.01,Wunderground v.1.13,2013-02-09 10:35:00,
2013-02-09 04:45:00,16.5,14.1,30.33,South,183,0.0,0.0,90,0.00,,,0.01,Wunderground v.1.13,2013-02-09 10:45:00,
2013-02-09 04:50:00,16.5,14.1,30.33,South,183,0.0,0.0,90,0.00,,,0.01,Wunderground v.1.13,2013-02-09 10:50:00,
2013-02-09 04:55:00,16.4,14.0,30.33,South,183,0.0,0.0,90,0.00,,,0.01,Wunderground v.1.13,2013-02-09 10:55:00,
2013-02-09 05:00:00,16.4,14.0,30.33,South,183,0.0,0.0,90,0.00,,,0.01,Wunderground v.1.13,2013-02-09 11:00:00,
2013-02-09 05:05:00,16.4,14.0,30.33,South,183,0.0,4.0,90,0.00,,,0.00,Wunderground v.1.13,2013-02-09 11:05:00,
2013-02-09 05:15:00,16.2,13.8,30.33,South,183,0.0,4.0,90,0.00,,,0.00,Wunderground v.1.13,2013-02-09 11:15:00,
2013-02-09 05:20:00,16.2,13.8,30.32,South,183,0.0,4.0,90,0.00,,,0.00,Wunderground v.1.13,2013-02-09 11:20:00,
2013-02-09 05:30:00,16.4,14.0,30.32,South,183,0.0,4.0,90,0.00,,,0.00,Wunderground v.1.13,2013-02-09 11:30:00,
2013-02-09 05:35:00,16.5,14.1,30.33,South,183,0.0,4.0,90,0.00,,,0.00,Wunderground v.1.13,2013-02-09 11:35:00,
2013-02-09 05:45:00,16.7,14.3,30.33,South,183,0.0,4.0,90,0.00,,,0.00,Wunderground v.1.13,2013-02-09 11:45:00,
2013-02-09 05:50:00,16.9,14.5,30.33,South,183,0.0,4.0,90,0.00,,,0.00,Wunderground v.1.13,2013-02-09 11:50:00,
2013-02-09 06:00:00,17.0,14.6,30.33,South,183,0.0,4.0,90,0.00,,,0.00,Wunderground v.1.13,2013-02-09 12:00:00,
2013-02-09 06:05:00,17.0,14.6,30.33,South,183,0.0,0.0,90,0.00,,,0.00,Wunderground v.1.13,2013-02-09 12:05:00,
2013-02-09 06:15:00,17.2,14.8,30.33,South,183,0.0,0.0,90,0.00,,,0.00,Wunderground v.1.13,2013-02-09 12:15:00,
2013-02-09 06:20:00,17.3,14.9,30.32,South,183,0.0,0.0,90,0.00,,,0.00,Wunderground v.1.13,2013-02-09 12:20:00,
2013-02-09 06:30:00,17.5,15.1,30.32,South,183,0.0,0.0,90,0.00,,,0.00,Wunderground v.1.13,2013-02-09 12:30:00,
2013-02-09 06:35:00,17.7,15.3,30.32,South,183,0.0,0.0,90,0.00,,,0.00,Wunderground v.1.13,2013-02-09 12:35:00,
2013-02-09 06:45:00,17.8,15.4,30.32,South,183,0.0,0.0,90,0.00,,,0.00,Wunderground v.1.13,2013-02-09 12:45:00,
2013-02-09 06:50:00,18.0,15.6,30.32,South,183,0.0,0.0,90,0.00,,,0.00,Wunderground v.1.13,2013-02-09 12:50:00,
2013-02-09 07:00:00,18.4,16.2,30.32,South,183,0.0,0.0,91,0.00,,,0.00,Wunderground v.1.13,2013-02-09 13:00:00,
2013-02-09 07:05:00,18.8,16.6,30.32,South,183,0.0,2.0,91,0.00,,,0.00,Wunderground v.1.13,2013-02-09 13:05:00,
2013-02-09 07:15:00,19.9,17.7,30.32,South,181,0.0,2.0,91,0.00,,,0.00,Wunderground v.1.13,2013-02-09 13:15:00,
2013-02-09 07:25:00,20.5,18.3,30.32,SSE,161,1.0,1.0,91,0.00,,,0.00,Wunderground v.1.13,2013-02-09 13:25:00,
2013-02-09 07:30:00,20.8,18.6,30.32,SSE,153,1.0,4.0,91,0.00,,,0.00,Wunderground v.1.13,2013-02-09 13:30:00,
2013-02-09 07:40:00,21.1,18.9,30.32,SSE,157,2.0,2.0,91,0.00,,,0.00,Wunderground v.1.13,2013-02-09 13:40:00,
2013-02-09 07:50:00,21.1,18.9,30.32,SSE,152,1.0,1.0,91,0.00,,,0.00,Wunderground v.1.13,2013-02-09 13:50:00,
2013-02-09 07:55:00,21.3,19.1,30.32,SSE,150,1.0,5.0,91,0.00,,,0.00,Wunderground v.1.13,2013-02-09 13:55:00,
2013-02-09 08:00:00,21.3,19.1,30.32,SSE,163,2.0,2.0,91,0.00,,,0.00,Wunderground v.1.13,2013-02-09 14:00:00,
2013-02-09 08:05:00,21.4,19.2,30.32,SSE,153,2.0,2.0,91,0.00,,,0.00,Wunderground v.1.13,2013-02-09 14:05:00,
2013-02-09 08:15:00,21.6,19.4,30.32,SSE,168,2.0,9.0,91,0.00,,,0.00,Wunderground v.1.13,2013-02-09 14:15:00,
2013-02-09 08:25:00,21.6,19.4,30.31,SSE,157,3.0,9.0,91,0.00,,,0.00,Wunderground v.1.13,2013-02-09 14:25:00,
2013-02-09 08:35:00,21.8,19.6,30.31,SE,132,2.0,9.0,91,0.00,,,0.00,Wunderground v.1.13,2013-02-09 14:35:00,
2013-02-09 08:45:00,21.8,19.6,30.31,SSE,161,3.0,3.0,91,0.00,,,0.00,Wunderground v.1.13,2013-02-09 14:45:00,
2013-02-09 08:55:00,21.9,19.7,30.31,SW,219,4.0,9.0,91,0.00,,,0.00,Wunderground v.1.13,2013-02-09 14:55:00,
2013-02-09 09:05:00,22.1,19.6,30.30,SSE,164,5.0,5.0,90,0.00,,,0.00,Wunderground v.1.13,2013-02-09 15:05:00,
2013-02-09 09:15:00,22.1,19.6,30.30,SSW,200,4.0,4.0,90,0.00,,,0.00,Wunderground v.1.13,2013-02-09 15:15:00,
2013-02-09 09:20:00,22.4,19.9,30.29,SSE,155,3.0,3.0,90,0.00,,,0.00,Wunderground v.1.13,2013-02-09 15:20:00,
2013-02-09 09:25:00,22.5,20.0,30.29,South,182,3.0,3.0,90,0.00,,,0.00,Wunderground v.1.13,2013-02-09 15:25:00,
2013-02-09 09:30:00,22.7,20.2,30.29,South,180,2.0,2.0,90,0.00,,,0.00,Wunderground v.1.13,2013-02-09 15:30:00,
2013-02-09 09:40:00,22.9,20.1,30.29,South,173,4.0,13.0,89,0.00,,,0.00,Wunderground v.1.13,2013-02-09 15:40:00,
2013-02-09 09:50:00,23.2,20.2,30.29,SE,140,5.0,5.0,88,0.00,,,0.00,Wunderground v.1.13,2013-02-09 15:50:00,
2013-02-09 09:55:00,23.3,20.0,30.29,South,182,5.0,13.0,87,0.00,,,0.00,Wunderground v.1.13,2013-02-09 15:55:00,
2013-02-09 10:05:00,23.8,20.2,30.28,South,180,5.0,5.0,86,0.00,,,0.00,Wunderground v.1.13,2013-02-09 16:05:00,
2013-02-09 10:15:00,23.9,19.8,30.28,South,170,7.0,14.0,84,0.00,,,0.00,Wunderground v.1.13,2013-02-09 16:15:00,
2013-02-09 10:25:00,24.4,20.3,30.28,SSE,156,5.0,14.0,84,0.00,,,0.00,Wunderground v.1.13,2013-02-09 16:25:00,
2013-02-09 10:30:00,24.4,20.0,30.28,SSE,163,5.0,14.0,83,0.00,,,0.00,Wunderground v.1.13,2013-02-09 16:30:00,
2013-02-09 10:40:00,24.5,20.1,30.27,SSE,164,7.0,7.0,83,0.00,,,0.00,Wunderground v.1.13,2013-02-09 16:40:00,
2013-02-09 10:50:00,24.8,20.4,30.27,SSE,161,7.0,14.0,83,0.00,,,0.00,Wunderground v.1.13,2013-02-09 16:50:00,
2013-02-09 11:00:00,25.0,20.3,30.27,SSE,148,7.0,7.0,82,0.00,,,0.00,Wunderground v.1.13,2013-02-09 17:00:00,
2013-02-09 11:05:00,25.1,20.4,30.27,SE,141,6.0,6.0,82,0.00,,,0.00,Wunderground v.1.13,2013-02-09 17:05:00,
2013-02-09 11:15:00,25.4,20.4,30.27,South,177,5.0,5.0,81,0.00,,,0.00,Wunderground v.1.13,2013-02-09 17:15:00,
2013-02-09 11:20:00,25.4,20.4,30.26,SSE,149,6.0,6.0,81,0.00,,,0.00,Wunderground v.1.13,2013-02-09 17:20:00,
2013-02-09 11:25:00,25.4,20.4,30.26,SSE,151,6.0,6.0,81,0.00,,,0.00,Wunderground v.1.13,2013-02-09 17:25:00,
2013-02-09 11:35:00,25.7,20.4,30.26,SSE,147,5.0,5.0,80,0.00,,,0.00,Wunderground v.1.13,2013-02-09 17:35:00,
2013-02-09 11:40:00,25.8,20.5,30.26,SE,146,5.0,20.0,80,0.00,,,0.00,Wunderground v.1.13,2013-02-09 17:40:00,
2013-02-09 11:50:00,26.0,20.7,30.24,SSE,164,4.0,20.0,80,0.00,,,0.00,Wunderground v.1.13,2013-02-09 17:50:00,
2013-02-09 12:00:00,26.0,20.4,30.24,SSW,198,6.0,20.0,79,0.00,,,0.00,Wunderground v.1.13,2013-02-09 18:00:00,
2013-02-09 12:05:00,26.1,20.5,30.23,SSE,151,6.0,6.0,79,0.00,,,0.00,Wunderground v.1.13,2013-02-09 18:05:00,
2013-02-09 12:15:00,26.4,20.8,30.23,SE,146,4.0,4.0,79,0.00,,,0.00,Wunderground v.1.13,2013-02-09 18:15:00,
2013-02-09 12:20:00,26.6,21.0,30.22,SSE,160,4.0,19.0,79,0.00,,,0.00,Wunderground v.1.13,2013-02-09 18:20:00,
2013-02-09 12:30:00,26.6,21.0,30.22,SSE,163,6.0,6.0,79,0.00,,,0.00,Wunderground v.1.13,2013-02-09 18:30:00,
2013-02-09 12:40:00,26.7,20.8,30.21,SSE,167,5.0,5.0,78,0.00,,,0.00,Wunderground v.1.13,2013-02-09 18:40:00,
2013-02-09 12:45:00,26.7,21.1,30.21,SSW,193,6.0,19.0,79,0.00,,,0.00,Wunderground v.1.13,2013-02-09 18:45:00,
2013-02-09 12:50:00,27.0,21.4,30.21,SSE,157,6.0,19.0,79,0.00,,,0.00,Wunderground v.1.13,2013-02-09 18:50:00,
2013-02-09 12:55:00,27.0,21.4,30.21,SSE,159,6.0,19.0,79,0.00,,,0.00,Wunderground v.1.13,2013-02-09 18:55:00,
2013-02-09 13:05:00,27.3,21.3,30.21,SSE,167,5.0,5.0,78,0.00,,,0.00,Wunderground v.1.13,2013-02-09 19:05:00,
2013-02-09 13:15:00,27.6,21.6,30.21,SSW,197,4.0,4.0,78,0.00,,,0.00,Wunderground v.1.13,2013-02-09 19:15:00,
2013-02-09 13:20:00,27.6,21.6,30.20,SSW,209,5.0,18.0,78,0.00,,,0.00,Wunderground v.1.13,2013-02-09 19:20:00,
2013-02-09 13:25:00,27.8,21.8,30.20,South,169,5.0,18.0,78,0.00,,,0.00,Wunderground v.1.13,2013-02-09 19:25:00,
2013-02-09 13:35:00,27.9,21.3,30.20,SSE,154,5.0,5.0,76,0.00,,,0.00,Wunderground v.1.13,2013-02-09 19:35:00,
2013-02-09 13:45:00,27.8,21.2,30.20,SSE,167,5.0,18.0,76,0.00,,,0.00,Wunderground v.1.13,2013-02-09 19:45:00,
2013-02-09 13:55:00,27.6,21.3,30.19,SSE,161,6.0,6.0,77,0.00,,,0.00,Wunderground v.1.13,2013-02-09 19:55:00,
2013-02-09 14:05:00,27.8,21.8,30.19,SSE,165,4.0,4.0,78,0.00,,,0.00,Wunderground v.1.13,2013-02-09 20:05:00,
2013-02-09 14:15:00,27.8,21.8,30.19,SE,146,4.0,16.0,78,0.00,,,0.00,Wunderground v.1.13,2013-02-09 20:15:00,
2013-02-09 14:25:00,27.6,21.6,30.19,SE,146,4.0,16.0,78,0.00,,,0.00,Wunderground v.1.13,2013-02-09 20:25:00,
2013-02-09 14:35:00,27.6,21.6,30.18,South,186,5.0,5.0,78,0.00,,,0.00,Wunderground v.1.13,2013-02-09 20:35:00,
2013-02-09 14:40:00,27.8,21.8,30.18,SSE,161,4.0,16.0,78,0.00,,,0.00,Wunderground v.1.13,2013-02-09 20:40:00,
2013-02-09 14:45:00,27.8,21.8,30.18,SSW,192,3.0,3.0,78,0.00,,,0.00,Wunderground v.1.13,2013-02-09 20:45:00,
2013-02-09 14:55:00,27.9,21.6,30.17,SSE,166,3.0,3.0,77,0.00,,,0.00,Wunderground v.1.13,2013-02-09 20:55:00,
2013-02-09 15:05:00,27.9,21.6,30.17,SSW,195,3.0,3.0,77,0.00,,,0.00,Wunderground v.1.13,2013-02-09 21:05:00,
2013-02-09 15:15:00,27.6,21.3,30.17,SE,146,5.0,5.0,77,0.00,,,0.00,Wunderground v.1.13,2013-02-09 21:15:00,
2013-02-09 15:25:00,27.5,21.5,30.16,SSE,159,5.0,5.0,78,0.00,,,0.00,Wunderground v.1.13,2013-02-09 21:25:00,
2013-02-09 15:30:00,27.5,21.5,30.16,South,181,6.0,6.0,78,0.00,,,0.00,Wunderground v.1.13,2013-02-09 21:30:00,
2013-02-09 15:40:00,27.5,21.5,30.16,SSE,153,5.0,11.0,78,0.00,,,0.00,Wunderground v.1.13,2013-02-09 21:40:00,
2013-02-09 15:45:00,27.5,21.5,30.16,SSW,204,5.0,11.0,78,0.00,,,0.00,Wunderground v.1.13,2013-02-09 21:45:00,
2013-02-09 15:50:00,27.5,21.5,30.16,South,178,4.0,4.0,78,0.00,,,0.00,Wunderground v.1.13,2013-02-09 21:50:00,
2013-02-09 16:00:00,27.8,22.1,30.16,SSE,151,1.0,11.0,79,0.00,,,0.00,Wunderground v.1.13,2013-02-09 22:00:00,
2013-02-09 16:05:00,27.8,22.1,30.15,SSE,168,2.0,14.0,79,0.00,,,0.00,Wunderground v.1.13,2013-02-09 22:05:00,
2013-02-09 16:15:00,27.6,21.9,30.15,SE,146,3.0,3.0,79,0.00,,,0.00,Wunderground v.1.13,2013-02-09 22:15:00,
2013-02-09 16:25:00,27.5,21.8,30.15,SSE,160,4.0,14.0,79,0.00,,,0.00,Wunderground v.1.13,2013-02-09 22:25:00,
2013-02-09 16:30:00,27.5,21.8,30.15,SSE,163,4.0,4.0,79,0.00,,,0.00,Wunderground v.1.13,2013-02-09 22:30:00,
2013-02-09 16:40:00,27.3,21.6,30.14,SSE,150,4.0,14.0,79,0.00,,,0.00,Wunderground v.1.13,2013-02-09 22:40:00,
2013-02-09 16:50:00,27.2,21.5,30.13,SSE,155,5.0,14.0,79,0.00,,,0.00,Wunderground v.1.13,2013-02-09 22:50:00,
2013-02-09 17:00:00,27.2,21.8,30.13,SE,144,4.0,14.0,80,0.00,,,0.00,Wunderground v.1.13,2013-02-09 23:00:00,
2013-02-09 17:05:00,27.0,21.7,30.13,SSE,167,2.0,13.0,80,0.00,,,0.00,Wunderground v.1.13,2013-02-09 23:05:00,
2013-02-09 17:15:00,27.0,21.7,30.13,ESE,121,2.0,2.0,80,0.00,,,0.00,Wunderground v.1.13,2013-02-09 23:15:00,
2013-02-09 17:20:00,27.0,21.9,30.12,South,173,2.0,2.0,81,0.00,,,0.00,Wunderground v.1.13,2013-02-09 23:20:00,
2013-02-09 17:25:00,27.0,21.9,30.12,SSE,166,2.0,13.0,81,0.00,,,0.00,Wunderground v.1.13,2013-02-09 23:25:00,
2013-02-09 17:30:00,27.0,21.9,30.12,SSE,155,3.0,13.0,81,0.00,,,0.00,Wunderground v.1.13,2013-02-09 23:30:00,
2013-02-09 17:40:00,27.0,21.9,30.12,SSE,156,3.0,13.0,81,0.00,,,0.00,Wunderground v.1.13,2013-02-09 23:40:00,
2013-02-09 17:45:00,27.0,21.9,30.12,SSE,164,3.0,3.0,81,0.00,,,0.00,Wunderground v.1.13,2013-02-09 23:45:00,
2013-02-09 17:55:00,27.0,21.9,30.12,SSE,151,3.0,3.0,81,0.00,,,0.00,Wunderground v.1.13,2013-02-09 23:55:00,
2013-02-09 18:00:00,27.0,22.2,30.12,SE,142,2.0,2.0,82,0.00,,,0.00,Wunderground v.1.13,2013-02-10 00:00:00,
2013-02-09 18:05:00,26.9,22.1,30.12,SSE,157,3.0,12.0,82,0.00,,,0.00,Wunderground v.1.13,2013-02-10 00:05:00,
2013-02-09 18:15:00,26.9,22.1,30.12,SSE,150,2.0,12.0,82,0.00,,,0.00,Wunderground v.1.13,2013-02-10 00:15:00,
2013-02-09 18:25:00,26.9,22.1,30.12,SSE,163,4.0,4.0,82,0.00,,,0.00,Wunderground v.1.13,2013-02-10 00:25:00,
2013-02-09 18:30:00,26.9,22.1,30.12,SSE,163,2.0,12.0,82,0.00,,,0.00,Wunderground v.1.13,2013-02-10 00:30:00,
2013-02-09 18:35:00,26.9,22.1,30.11,SSE,157,3.0,3.0,82,0.00,,,0.00,Wunderground v.1.13,2013-02-10 00:35:00,
2013-02-09 18:45:00,26.9,22.1,30.11,East,101,4.0,4.0,82,0.00,,,0.00,Wunderground v.1.13,2013-02-10 00:45:00,
2013-02-09 18:50:00,26.9,22.1,30.11,SSE,167,5.0,5.0,82,0.00,,,0.00,Wunderground v.1.13,2013-02-10 00:50:00,
2013-02-09 18:55:00,26.9,22.1,30.11,South,169,4.0,12.0,82,0.00,,,0.00,Wunderground v.1.13,2013-02-10 00:55:00,
2013-02-09 19:05:00,26.9,22.1,30.10,SSE,159,4.0,14.0,82,0.00,,,0.00,Wunderground v.1.13,2013-02-10 01:05:00,
2013-02-09 19:15:00,26.9,22.1,30.10,SSE,163,5.0,14.0,82,0.00,,,0.00,Wunderground v.1.13,2013-02-10 01:15:00,
2013-02-09 19:20:00,27.0,22.5,30.10,SE,145,4.0,4.0,83,0.00,,,0.00,Wunderground v.1.13,2013-02-10 01:20:00,
2013-02-09 19:30:00,26.9,22.4,30.10,SSE,148,3.0,3.0,83,0.00,,,0.00,Wunderground v.1.13,2013-02-10 01:30:00,
2013-02-09 19:40:00,26.9,22.4,30.10,SSE,155,3.0,14.0,83,0.00,,,0.00,Wunderground v.1.13,2013-02-10 01:40:00,
2013-02-09 19:45:00,26.9,22.4,30.10,SSE,163,3.0,3.0,83,0.00,,,0.00,Wunderground v.1.13,2013-02-10 01:45:00,
2013-02-09 19:55:00,27.0,22.5,30.09,SSE,153,3.0,14.0,83,0.00,,,0.00,Wunderground v.1.13,2013-02-10 01:55:00,
2013-02-09 20:00:00,27.0,22.5,30.09,SSE,159,3.0,14.0,83,0.00,,,0.00,Wunderground v.1.13,2013-02-10 02:00:00,
2013-02-09 20:05:00,27.0,22.5,30.09,SSE,153,2.0,2.0,83,0.00,,,0.00,Wunderground v.1.13,2013-02-10 02:05:00,
2013-02-09 20:15:00,27.2,22.7,30.09,South,171,3.0,12.0,83,0.00,,,0.00,Wunderground v.1.13,2013-02-10 02:15:00,
2013-02-09 20:25:00,27.3,22.8,30.09,SSE,156,4.0,4.0,83,0.00,,,0.00,Wunderground v.1.13,2013-02-10 02:25:00,
2013-02-09 20:35:00,27.5,23.0,30.09,SE,146,1.0,1.0,83,0.00,,,0.00,Wunderground v.1.13,2013-02-10 02:35:00,
2013-02-09 20:45:00,27.3,22.8,30.09,SSE,157,1.0,1.0,83,0.00,,,0.00,Wunderground v.1.13,2013-02-10 02:45:00,
2013-02-09 20:50:00,27.2,22.7,30.09,SSE,157,1.0,1.0,83,0.00,,,0.00,Wunderground v.1.13,2013-02-10 02:50:00,
2013-02-09 21:00:00,27.0,22.8,30.09,SSE,157,1.0,1.0,84,0.00,,,0.00,Wunderground v.1.13,2013-02-10 03:00:00,
2013-02-09 21:05:00,27.0,22.8,30.09,SSE,157,1.0,1.0,84,0.00,,,0.00,Wunderground v.1.13,2013-02-10 03:05:00,
2013-02-09 21:15:00,26.4,21.9,30.09,SSE,157,0.0,8.0,83,0.00,,,0.00,Wunderground v.1.13,2013-02-10 03:15:00,
2013-02-09 21:20:00,26.1,21.9,30.08,SSE,157,0.0,8.0,84,0.00,,,0.00,Wunderground v.1.13,2013-02-10 03:20:00,
2013-02-09 21:25:00,25.8,21.6,30.08,SSE,157,0.0,8.0,84,0.00,,,0.00,Wunderground v.1.13,2013-02-10 03:25:00,
2013-02-09 21:30:00,25.6,21.4,30.08,SSE,157,0.0,8.0,84,0.00,,,0.00,Wunderground v.1.13,2013-02-10 03:30:00,
2013-02-09 21:40:00,24.8,20.7,30.08,SSE,157,0.0,8.0,84,0.00,,,0.00,Wunderground v.1.13,2013-02-10 03:40:00,
2013-02-09 21:45:00,24.7,20.8,30.08,SSE,157,0.0,8.0,85,0.00,,,0.00,Wunderground v.1.13,2013-02-10 03:45:00,
2013-02-09 21:50:00,24.4,20.5,30.08,SSE,157,0.0,8.0,85,0.00,,,0.00,Wunderground v.1.13,2013-02-10 03:50:00,
2013-02-09 22:00:00,24.1,20.5,30.08,SSE,157,0.0,8.0,86,0.00,,,0.00,Wunderground v.1.13,2013-02-10 04:00:00,
2013-02-09 22:05:00,23.8,20.2,30.06,SSE,157,0.0,0.0,86,0.00,,,0.00,Wunderground v.1.13,2013-02-10 04:05:00,
2013-02-09 22:15:00,23.3,20.0,30.06,SSE,157,0.0,0.0,87,0.00,,,0.00,Wunderground v.1.13,2013-02-10 04:15:00,
2013-02-09 22:20:00,23.0,19.7,30.06,SSE,157,0.0,0.0,87,0.00,,,0.00,Wunderground v.1.13,2013-02-10 04:20:00,
2013-02-09 22:25:00,22.7,19.4,30.06,SSE,157,0.0,0.0,87,0.00,,,0.00,Wunderground v.1.13,2013-02-10 04:25:00,
2013-02-09 22:35:00,22.2,18.9,30.06,SSE,157,0.0,0.0,87,0.00,,,0.00,Wunderground v.1.13,2013-02-10 04:35:00,
2013-02-09 22:40:00,21.9,18.6,30.06,SSE,157,0.0,0.0,87,0.00,,,0.00,Wunderground v.1.13,2013-02-10 04:40:00,
2013-02-09 22:50:00,21.3,18.3,30.05,SSE,157,0.0,0.0,88,0.00,,,0.00,Wunderground v.1.13,2013-02-10 04:50:00,
2013-02-09 23:00:00,21.1,18.1,30.05,SSE,157,0.0,0.0,88,0.00,,,0.00,Wunderground v.1.13,2013-02-10 05:00:00,
2013-02-09 23:05:00,21.0,18.0,30.05,SSE,157,0.0,0.0,88,0.00,,,0.00,Wunderground v.1.13,2013-02-10 05:05:00,
2013-02-09 23:15:00,20.5,17.5,30.05,SSE,157,0.0,0.0,88,0.00,,,0.00,Wunderground v.1.13,2013-02-10 05:15:00,
2013-02-09 23:25:00,20.2,17.5,30.04,SSE,157,0.0,0.0,89,0.00,,,0.00,Wunderground v.1.13,2013-02-10 05:25:00,
2013-02-09 23:35:00,19.9,17.2,30.04,SSE,157,0.0,0.0,89,0.00,,,0.00,Wunderground v.1.13,2013-02-10 05:35:00,
2013-02-09 23:45:00,20.0,17.5,30.04,SSE,157,0.0,0.0,90,0.00,,,0.00,Wunderground v.1.13,2013-02-10 05:45:00,
2013-02-09 23:50:00,20.0,17.5,30.04,SSE,157,0.0,0.0,90,0.00,,,0.00,Wunderground v.1.13,2013-02-10 05:50:00,
2013-02-09 23:55:00,19.9,17.4,30.04,SSE,157,0.0,0.0,90,0.00,,,0.00,Wunderground v.1.13,2013-02-10 05:55:00,